Regional Weather Roundup
Issued by NWS Albany, NY

Home | Current Version | Previous Version | Text Only | Print | Product List | Glossary On
Versions: 1 2 3 4 5 6 7 8 9 10 11 12 13 14 15 16 17 18 19 20 21 22 23 24 25 26 27 28 29 30 31 32 33 34 35 36 37 38 39 40 41 42 43 44 45 46 47 48 49 50
000
ASUS41 KALY 011410
RWRALY

NEW YORK STATE HOURLY WEATHER ROUNDUP
NATIONAL WEATHER SERVICE ALBANY NY
1000 AM EDT WED APR 01 2015

NOTE: "FAIR" INDICATES FEW OR NO CLOUDS BELOW 12,000 FEET WITH NO
SIGNIFICANT WEATHER AND/OR NO OBSTRUCTIONS TO VISIBILITY.

NYZ032-033-038>043-046>054-057>066-NYZ062>081-011500-
EAST


CITY           SKY/WX    TMP DP  RH WIND       PRES   REMARKS
ALBANY         MOSUNNY   38   7  27 N6        30.05R WCI  33
GLENS FALLS    SUNNY     31  10  41 E7        30.05R WCI  24
POUGHKEEPSIE   MOSUNNY   36  19  50 W6        30.06R WCI  31
NEWBURGH       MOSUNNY   32  25  74 CALM      30.06R
MONTGOMERY     MOSUNNY   35  23  61 CALM      30.04R
WHITE PLAINS   PTSUNNY   35  13  40 N10       30.04R WCI  27
ISLIP          PTSUNNY   39  13  34 N13       30.03R WCI  31
NEW YORK CITY  CLOUDY    36  17  46 NW10      30.08R WCI  28
CENTRAL PARK   CLOUDY    35  17  47 VRB3      30.10R
$$

NYZ005>009-017-018-044>046-055-056-011500-
CENTRAL


CITY           SKY/WX    TMP DP  RH WIND       PRES   REMARKS
FULTON         SUNNY     31   8  38 N7        30.13R WCI  24
SYRACUSE       PTSUNNY   33  12  41 NW10      30.11R WCI  25
ROME           MIX PCPN  30  11  45 NW7       30.10R WCI  23
ELMIRA         SUNNY     36  25  64 N10       30.09R WCI  28
BINGHAMTON     PTSUNNY   29  23  78 NW7       30.02R WCI  22
MONTICELLO     MOSUNNY   28  19  69 W6        30.02R WCI  22
$$

NYZ026>034-041>043-011500-
NORTH


CITY           SKY/WX    TMP DP  RH WIND       PRES   REMARKS
WATERTOWN      SUNNY     32   9  38 N6        30.13R WCI  26
FORT DRUM      NOT AVBL
MASSENA        MOSUNNY   29   4  34 N7        30.14R WCI  22
SARANAC LAKE   SUNNY     23   1  38 NE7       29.98R WCI  15
PLATTSBURGH    SUNNY     28   3  34 N8        30.09R WCI  20
$$

NYZ001>004-010>016-019>021-011500-
WEST


CITY           SKY/WX    TMP DP  RH WIND       PRES   REMARKS
NIAGARA FALLS  MOSUNNY   34  19  54 NE7       30.14R WCI  28
BUFFALO        MOSUNNY   34  20  56 NE5       30.14R WCI  30
DUNKIRK        CLOUDY    32  21  64 NW3       30.15R
JAMESTOWN      CLOUDY    27  23  86 CALM      30.09R
WELLSVILLE     SUNNY     31  18  58 VRB5      30.06R WCI  26
ROCHESTER      MOSUNNY   36  11  35 NE9       30.14R WCI  29
PENN YAN       MOSUNNY   34  18  52 N7        30.11R WCI  28
$$

             KEY
       WCI = WIND CHILL INDEX
       VSB = VISIBILITY
       HX  = HEAT INDEX
$$



USA.gov is the U.S. government's official web portal to all federal, state and local government web resources and services.